Camp Douglas, WI

8:40 AM CST on February 12, 2016 (GMT -0600)
Volk

Weather History for KVOK - September, 2013

Change the Weather History Date:

Monday, September 16, 2013

  Actual Average Record
Temperature  
Mean Temperature 48 °F -  
Max Temperature 64 °F 69 °F 84 °F (2015)
Min Temperature 33 °F 50 °F 30 °F (2011)
Degree Days  
Heating Degree Days 16    
Moisture  
Dew Point 40 °F    
Average Humidity 73    
Maximum Humidity 100    
Minimum Humidity 37    
Precipitation  
Precipitation 0.00 in - - ()
Sea Level Pressure  
Sea Level Pressure 30.38 in    
Wind  
Wind Speed 5 mph (East)    
Max Wind Speed 8 mph    
Max Gust Speed -    
Visibility 10 miles    
Events      
Averages and records for this station are not official NWS values.
T = Trace of Precipitation, MM = Missing Value Source: NWS Daily Summary

Daily Weather History Graph

Daily Weather History Graph

Search for Another Location

Airport or City:

Trip Planner

Search our weather history database for the weather conditions in past years. The results will help you decide how hot, cold, wet, or windy it might be!

Date:

Astronomy

Sep. 16, 2013 Rise Set
Actual Time 6:41 AM CDT 7:09 PM CDT
Civil Twilight 6:12 AM CDT 7:37 PM CDT
Nautical Twilight 5:38 AM CDT 8:12 PM CDT
Astronomical Twilight 5:03 AM CDT 8:47 PM CDT
Moon 5:21 PM CDT (9/16) 3:22 AM CDT (9/16)
Length of Visible Light 13h 25m
Length of Day
12h 27m
Waxing Gibbous, 90% of the Moon is Illuminated
Sep 16
Waxing Gibbous
Sep 19
Full
Sep 26
Last Quarter
Oct 4
New
Oct 11
First Quarter

Hourly Weather History & Observations

Time (CDT) Temp. Windchill Dew Point Humidity Pressure Visibility Wind Dir Wind Speed Gust Speed Precip Events Conditions
12:58 AM 52.9 °F - 45.7 °F 77% 30.32 in 10.0 mi North 4.6 mph - N/A   Overcast
1:58 AM 51.8 °F - 44.1 °F 75% 30.34 in 10.0 mi ENE 5.8 mph - N/A   Overcast
2:58 AM 49.8 °F - 43.5 °F 79% 30.35 in 10.0 mi NNE 6.9 mph - N/A   Overcast
3:33 AM 46.4 °F 43.5 °F 41.0 °F 81% 30.34 in 10.0 mi NE 5.8 mph - N/A   Scattered Clouds
3:58 AM 45.1 °F 42.8 °F 40.6 °F 84% 30.37 in 10.0 mi NE 4.6 mph - N/A   Clear
4:58 AM 41.9 °F 40.0 °F 39.2 °F 90% 30.38 in 10.0 mi NE 3.5 mph - N/A   Clear
5:58 AM 39.4 °F - 37.9 °F 95% 30.40 in 10.0 mi East 2.3 mph - N/A   Clear
6:48 AM 33.8 °F - 33.8 °F 100% 30.39 in 2.5 mi Calm Calm - N/A   Clear
6:58 AM 37.4 °F - 35.6 °F 93% 30.43 in 10.0 mi Calm Calm - N/A   Clear
7:58 AM 41.0 °F - 39.2 °F 93% 30.42 in 10.0 mi Variable 1.2 mph - N/A   Clear
8:58 AM 48.2 °F - 42.8 °F 82% 30.44 in 10.0 mi East 4.6 mph - N/A   Clear
9:58 AM 53.6 °F - 41.0 °F 62% 30.45 in 10.0 mi ENE 8.1 mph - N/A   Partly Cloudy
10:58 AM 55.4 °F - 41.0 °F 58% 30.44 in 10.0 mi East 6.9 mph - N/A   Partly Cloudy
11:58 AM 59.0 °F - 39.2 °F 48% 30.43 in 10.0 mi Variable 4.6 mph - N/A   Clear
12:58 PM 60.8 °F - 41.0 °F 48% 30.43 in 10.0 mi SSE 5.8 mph - N/A   Clear
1:58 PM 62.6 °F - 39.2 °F 42% 30.41 in 10.0 mi SSE 4.6 mph - N/A   Clear
2:58 PM 64.4 °F - 39.2 °F 40% 30.39 in 10.0 mi ESE 4.6 mph - N/A   Clear
3:58 PM 64.8 °F - 37.9 °F 37% 30.37 in 10.0 mi SE 5.8 mph - N/A   Clear
4:58 PM 64.4 °F - 41.0 °F 42% 30.36 in 10.0 mi ESE 8.1 mph - N/A   Clear
5:58 PM 62.6 °F - 41.0 °F 45% 30.35 in 10.0 mi East 4.6 mph - N/A   Clear
6:58 PM 55.4 °F - 44.6 °F 67% 30.34 in 10.0 mi East 3.5 mph - N/A   Clear
7:58 PM 46.4 °F 45.2 °F 42.8 °F 87% 30.35 in 10.0 mi ESE 3.5 mph - N/A   Clear
8:58 PM 42.8 °F 41.1 °F 41.0 °F 93% 30.36 in 10.0 mi East 3.5 mph - N/A   Clear
9:58 PM 42.8 °F - 41.0 °F 93% 30.36 in 10.0 mi ESE 2.3 mph - N/A   Clear
10:58 PM 41.0 °F 39.0 °F 39.2 °F 93% 30.37 in 10.0 mi SSE 3.5 mph - N/A   Clear
11:58 PM 39.2 °F 35.9 °F 39.2 °F 100% 30.36 in 10.0 mi SE 4.6 mph - N/A   Clear